Weather in Baghdad

Iraq     33°17′12″N   44°24′12″E
temp.,
°C
wind,
m/s
gust,
m/s
humid.,
%
clouds,
%
prec.,
mm/h
press.,
hPa
HPBL,
m
4 august, wed
wed400:00+39nw451664 0.0 999108
03:00+37nnw45185 0.0 99993
06:00+37wnw331813 0.0 100138
09:00+42wnw44137 0.0 1001575
12:00+46wnw5690 0.0 10014389
15:00+47wnw8782 0.0 9994961
18:00+45wnw77101 0.0 9991717
21:00+42wnw58110 0.0 1000249
5 august, thu
thu500:00+39wnw571424 0.0 999139
03:00+37nnw46192 0.0 999115
06:00+36nw57220 0.0 999130
09:00+42nw79140 0.0 1000666
12:00+46nw65110 0.0 9993573
15:00+47nnw4491 0.0 9974868
18:00+46nw991011 0.0 9961593
21:00+42wnw1015125 0.0 997539
6 august, fri
fri600:00+40nnw712151 0.0 997374
03:00+37w46165 0.0 997140
06:00+37w681635 0.0 998216
09:00+39wnw671673 0.0 998386
12:00+46nnw43102 0.0 9971934
15:00+48wnw6495 0.0 9964980
18:00+46wnw771019 0.0 9951203
21:00+42nw711125 0.0 997283
7 august, sat
sat700:00+40nw58144 0.0 998250
03:00+37n581722 0.0 998171
06:00+37nnw461454 0.0 999118
09:00+43nnw46120 0.0 1000834
12:00+47wnw3280 0.0 9995004
15:00+47wnw8578 0.0 9984917
18:00+46wnw7884 0.0 9991303
21:00+41nw69920 0.0 1001326
8 august, sun
sun800:00+38nnw571122 0.0 1002153
03:00+36n611112 0.0 1002191
06:00+35n47120 0.0 1003111
09:00+43n6670 0.0 1004670
12:00+46nw7970 0.0 10033862
15:00+47wnw7760 0.0 10024452
18:00+44wnw91070 0.0 10021014
21:00+41nw5790 0.0 1003173